Myrtle Beach, SC

6:23 AM EST on February 18, 2018 (GMT -0500)
Myrtle Beach International

Weather History for KMYR - August, 2013

Change the Weather History Date:

Thursday, August 29, 2013

  Actual Average Record
Temperature  
Mean Temperature 82 °F -  
Max Temperature 91 °F 82 °F 93 °F (1951)
Min Temperature 73 °F 69 °F 64 °F (1953)
Cooling Degree Days 17    
Growing Degree Days 32 (Base 50)    
Moisture  
Dew Point 70 °F    
Average Humidity 74    
Maximum Humidity 83    
Minimum Humidity 52    
Precipitation  
Precipitation 0.00 in - - ()
Sea Level Pressure  
Sea Level Pressure 29.93 in    
Wind  
Wind Speed 9 mph (WSW)    
Max Wind Speed 13 mph    
Max Gust Speed 21 mph    
Visibility 10 miles    
Events      
Averages and records for this station are not official NWS values.
T = Trace of Precipitation, MM = Missing Value Source: NWS Daily Summary

Daily Weather History Graph

Daily Weather History Graph

Search for Another Location

Airport or City:

Trip Planner

Search our weather history database for the weather conditions in past years. The results will help you decide how hot, cold, wet, or windy it might be!

Date:

Astronomy

Aug. 29, 2013 Rise Set
Actual Time 6:47 AM EDT 7:44 PM EDT
Civil Twilight 6:22 AM EDT 8:10 PM EDT
Nautical Twilight 5:51 AM EDT 8:40 PM EDT
Astronomical Twilight 5:20 AM EDT 9:11 PM EDT
Moon 12:46 AM EDT (8/29) 3:03 PM EDT (8/29)
Length of Visible Light 13h 48m
Length of Day
12h 57m
Last Quarter, 38% of the Moon is Illuminated
Aug 29
Last Quarter
Sep 5
New
Sep 12
First Quarter
Sep 19
Full
Sep 26
Last Quarter

Hourly Weather History & Observations

Time (EDT) Temp. Heat Index Dew Point Humidity Pressure Visibility Wind Dir Wind Speed Gust Speed Precip Events Conditions
12:15 AM 78.8 °F - 69.8 °F 74% 29.96 in 10.0 mi WSW 8.1 mph - N/A   Clear
12:35 AM 77.0 °F - 69.8 °F 78% 29.96 in 10.0 mi WSW 8.1 mph - N/A   Clear
12:55 AM 77.0 °F - 69.8 °F 78% 29.95 in 10.0 mi SW 8.1 mph - N/A   Clear
1:15 AM 77.0 °F - 68.0 °F 74% 29.94 in 10.0 mi SW 8.1 mph - N/A   Clear
1:35 AM 75.2 °F - 68.0 °F 78% 29.94 in 10.0 mi SW 8.1 mph - N/A   Clear
1:55 AM 75.2 °F - 68.0 °F 78% 29.94 in 10.0 mi WSW 9.2 mph - N/A   Clear
2:15 AM 75.2 °F - 68.0 °F 78% 29.94 in 10.0 mi WSW 8.1 mph - N/A   Clear
2:35 AM 75.2 °F - 68.0 °F 78% 29.94 in 10.0 mi WSW 9.2 mph - N/A   Clear
2:55 AM 75.2 °F - 68.0 °F 78% 29.94 in 10.0 mi WSW 8.1 mph - N/A   Clear
3:15 AM 75.2 °F - 68.0 °F 78% 29.94 in 10.0 mi SW 9.2 mph - N/A   Clear
3:35 AM 75.2 °F - 68.0 °F 78% 29.93 in 10.0 mi WSW 9.2 mph - N/A   Clear
3:55 AM 73.4 °F - 68.0 °F 83% 29.93 in 10.0 mi WSW 10.4 mph - N/A   Clear
4:15 AM 73.4 °F - 68.0 °F 83% 29.93 in 10.0 mi WSW 10.4 mph - N/A   Clear
4:35 AM 73.4 °F - 68.0 °F 83% 29.93 in 10.0 mi WSW 9.2 mph - N/A   Clear
4:55 AM 73.4 °F - 68.0 °F 83% 29.93 in 10.0 mi WSW 8.1 mph - N/A   Clear
5:15 AM 73.4 °F - 68.0 °F 83% 29.93 in 10.0 mi WSW 9.2 mph - N/A   Clear
5:35 AM 73.4 °F - 68.0 °F 83% 29.92 in 10.0 mi WSW 10.4 mph - N/A   Clear
5:45 AM 73.4 °F - 68.0 °F 83% 29.92 in 10.0 mi West 10.4 mph - N/A   Clear
7:45 AM 73.4 °F - 68.0 °F 83% 29.93 in 10.0 mi West 10.4 mph - N/A   Clear
8:50 AM 78.8 °F - 69.8 °F 74% 29.94 in 10.0 mi West 8.1 mph - N/A   Clear
9:50 AM 82.4 °F 86.3 °F 69.8 °F 66% 29.94 in 10.0 mi West 9.2 mph - N/A   Clear
10:45 AM 84.2 °F 88.4 °F 69.8 °F 62% 29.94 in 10.0 mi West 9.2 mph - N/A   Clear
11:45 AM 87.8 °F 93.8 °F 71.6 °F 58% 29.91 in 10.0 mi West 11.5 mph - N/A   Clear
12:30 PM 89.6 °F 96.2 °F 71.6 °F 55% 29.91 in 10.0 mi WNW 11.5 mph - N/A   Clear
12:50 PM 89.6 °F 96.2 °F 71.6 °F 55% 29.91 in 10.0 mi WNW 9.2 mph - N/A   Clear
1:50 PM 91.4 °F 100.1 °F 73.4 °F 55% 29.90 in 10.0 mi NNW 11.5 mph - N/A   Scattered Clouds
2:50 PM 91.4 °F 98.4 °F 71.6 °F 52% 29.88 in 10.0 mi North 10.4 mph - N/A   Scattered Clouds
4:45 PM 89.6 °F 99.8 °F 75.2 °F 62% 29.87 in 10.0 mi South 9.2 mph - N/A   Scattered Clouds
5:45 PM 86.0 °F 93.4 °F 73.4 °F 66% 29.88 in 8.0 mi South 6.9 mph - N/A   Scattered Clouds
6:45 PM 84.2 °F 92.3 °F 75.2 °F 74% 29.88 in 7.0 mi Calm Calm - N/A   Scattered Clouds
7:50 PM 82.4 °F 88.2 °F 73.4 °F 74% 29.90 in 8.0 mi Variable 6.9 mph - N/A   Scattered Clouds
8:45 PM 80.6 °F 85.4 °F 73.4 °F 79% 29.91 in 10.0 mi Variable 6.9 mph - N/A   Partly Cloudy
10:55 PM 78.8 °F - 73.4 °F 83% 29.95 in 10.0 mi NNE 9.2 mph - N/A   Clear
11:15 PM 78.8 °F - 73.4 °F 83% 29.96 in 10.0 mi NE 10.4 mph - N/A   Clear
11:35 PM 78.8 °F - 73.4 °F 83% 29.96 in 10.0 mi ENE 12.7 mph 20.7 mph N/A   Clear
11:55 PM 78.8 °F - 73.4 °F 83% 29.96 in 10.0 mi ENE 12.7 mph - N/A   Clear